Location: Banios
(43.0451°N, 0.2335°E)
Time: 09:49:30
(UTC+00:00)

A-11 Canister half - Pass Details

Date: 20 May 2021
Orbit: 1527 x 1681 km, 47.3° (Epoch: 22 June)

Event Time Altitude Azimuth Distance (km) Brightness Sun altitude
Rises 06:33:07 0° 222° (SW) 4,675 11.1 20.2°
Reaches altitude 10° 06:36:11 10° 218° (SW) 3,703 10.7 20.8°
Maximum altitude 06:45:15 58° 143° (SE) 1,786 10.0 22.4°
Drops below altitude 10° 06:54:37 10° 68° (ENE) 3,817 12.7 24.1°
Sets 06:57:49 0° 64° (ENE) 4,826 12.8 24.7°
